"Timestamp","TZ","WindDir_Mean (deg)","WindSpd_Mean (km/h)","WindSpd_Min (km/h)","WindSpd_Max (km/h)","Temp_Mean (deg)","RH_Mean (%)","MSLP_Mean (hPa)","Rain_Acc (mm)","Rain_Intensity (mm/h)","Hail_Acc (hits/cm2)","Hail_Intensity (hits/cm2hr)","Solar_Mean (W/m2)"
2020/12/31 00:00:00.014,n,168,3.96,3.24,4.32,22.1,83,1014.72,0,0,0,0,0.033951
2020/12/31 00:01:00.000,n,143,5.4,5.04,5.4,22.1,83,1014.72,0,0,0,0,0.033073
2020/12/31 00:02:00.000,n,169,3.6,3.6,4.32,22.1,83,1014.72,0,0,0,0,0.032196
2020/12/31 00:03:00.000,n,159,4.32,3.6,6.12,22.1,83,1014.72,0,0,0,0,0.033951
2020/12/31 00:04:00.004,n,152,5.4,5.04,5.76,22.1,82.9,1014.62,0,0,0,0,0.030479
2020/12/31 00:05:00.002,n,141,3.24,3.24,3.96,22.1,82.9,1014.62,0,0,0,0,0.034828
2020/12/31 00:06:00.000,n,188,4.68,4.68,5.4,22.1,82.9,1014.62,0,0,0,0,0.035706
2020/12/31 00:07:00.000,n,152,5.4,5.04,5.76,22.1,83,1014.62,0,0,0,0,0.033073
2020/12/31 00:08:00.011,n,166,2.52,2.16,2.88,22.1,83,1014.62,0,0,0,0,0.034828
2020/12/31 00:09:00.008,n,154,5.04,3.24,6.48,22.1,83,1014.62,0,0,0,0,0.036545
2020/12/31 00:10:00.000,n,134,7.56,6.84,8.64,22.1,82.9,1014.62,0,0,0,0,0.034828
2020/12/31 00:11:00.002,n,152,7.56,6.84,8.28,22.1,82.7,1014.62,0,0,0,0,0.036545
2020/12/31 00:12:00.000,n,135,7.2,6.84,7.56,22.1,82.7,1014.62,0,0,0,0,0.034828
2020/12/31 00:13:00.000,n,147,6.84,6.48,7.92,22.1,82.7,1014.62,0,0,0,0,0.040932
2020/12/31 00:14:00.000,n,209,2.16,1.44,2.88,22.1,82.8,1014.62,0,0,0,0,0.036545
2020/12/31 00:15:00.007,n,134,3.6,3.24,4.68,22.1,82.8,1014.62,0,0,0,0,0.032196
2020/12/31 00:16:00.005,n,154,5.04,4.32,6.12,22.1,82.8,1014.62,0,0,0,0,0.033073
2020/12/31 00:17:00.002,n,142,5.04,5.04,5.4,22.1,82.7,1014.62,0,0,0,0,0.030479
2020/12/31 00:18:00.015,n,170,7.2,6.48,7.92,22.1,82.6,1014.62,0,0.1,0,0,0.0383
2020/12/31 00:19:00.000,n,113,5.4,4.68,6.84,22.1,82.7,1014.52,0,0.2,0,0,0.036545
2020/12/31 00:20:00.000,n,205,5.76,3.6,7.2,22.1,82.6,1014.52,0,0.1,0,0,0.031357
2020/12/31 00:21:00.000,n,164,7.56,6.12,8.28,22,82.4,1014.52,0.01,0.4,0,0,0.034828
2020/12/31 00:22:00.007,n,100,1.8,0.72,2.88,22,82.7,1014.52,0.02,0.2,0,0,0.037422
2020/12/31 00:23:00.005,n,137,7.2,6.48,8.28,22,82.8,1014.52,0.02,0,0,0,0.037422
2020/12/31 00:24:00.002,n,162,5.04,2.88,7.92,22,82.8,1014.42,0.02,0,0,0,0.0383
2020/12/31 00:25:00.000,n,134,9,8.64,9,21.9,82.9,1014.42,0.02,0,0,0,0.037422
2020/12/31 00:26:00.014,n,137,6.84,5.76,7.2,21.9,83.1,1014.42,0.02,0.1,0,0,0.036545
2020/12/31 00:27:00.011,n,131,2.88,2.16,3.24,21.9,83.3,1014.42,0.02,0,0,0,0.036545
2020/12/31 00:28:00.000,n,147,7.56,7.2,8.28,21.9,83.4,1014.42,0.02,0,0,0,0.036545
2020/12/31 00:29:00.000,n,113,3.6,2.88,4.68,21.8,83.4,1014.42,0.02,0,0,0,0.033951
2020/12/31 00:30:00.003,n,160,4.32,3.6,4.68,21.8,83.7,1014.42,0.02,0,0,0,0.033951
2020/12/31 00:31:00.000,n,148,3.6,2.88,5.04,21.8,83.7,1014.42,0.02,0,0,0,0.035706
2020/12/31 00:32:00.000,n,194,5.76,5.04,6.12,21.8,83.8,1014.32,0.02,0,0,0,0.033073
2020/12/31 00:33:00.011,n,179,5.4,4.68,6.48,21.8,83.6,1014.32,0.02,0,0,0,0.033951
2020/12/31 00:34:00.008,n,186,5.04,4.32,5.76,21.7,83.8,1014.32,0.02,0,0,0,0.035706
2020/12/31 00:35:00.005,n,156,3.96,3.6,4.32,21.7,84.1,1014.32,0.02,0,0,0,0.031357
2020/12/31 00:36:00.002,n,195,7.2,6.12,7.92,21.7,84,1014.32,0.02,0,0,0,0.02697
2020/12/31 00:37:00.000,n,141,2.52,1.8,2.88,21.7,84.2,1014.22,0.02,0,0,0,0.030479
2020/12/31 00:38:00.000,n,131,1.8,0.36,2.52,21.7,84.2,1014.22,0.02,0,0,0,0.02697
2020/12/31 00:39:00.000,n,157,3.6,2.88,4.32,21.7,84.3,1014.22,0.02,0,0,0,0.026131
2020/12/31 00:40:00.000,n,174,6.48,5.4,7.56,21.7,84,1014.22,0.02,0,0,0,0.022621
2020/12/31 00:41:00.006,n,167,9,6.84,9.72,21.7,83.9,1014.22,0.02,0,0,0,0.024376
2020/12/31 00:42:00.003,n,134,6.84,6.12,7.92,21.7,83.9,1014.22,0.02,0,0,0,0.023537
2020/12/31 00:43:00.000,n,130,5.04,4.32,7.2,21.6,83.9,1014.22,0.02,0,0,0,0.02697
2020/12/31 00:44:00.013,n,176,2.88,2.16,3.24,21.6,84,1014.22,0.02,0,0,0,0.024376
2020/12/31 00:45:00.010,n,137,5.04,1.8,6.12,21.6,84,1014.22,0.02,0,0,0,0.027847
2020/12/31 00:46:00.000,n,191,6.48,5.4,7.2,21.6,84,1014.22,0.02,0,0,0,0.022621
2020/12/31 00:47:00.000,n,167,5.76,5.04,6.12,21.6,84,1014.22,0.02,0,0,0,0.020905
2020/12/31 00:48:00.003,n,165,5.76,4.32,6.84,21.6,84,1014.22,0.02,0,0,0,0.028763
2020/12/31 00:49:00.000,n,161,6.48,6.12,7.56,21.6,84.1,1014.12,0.02,0,0,0,0.024376
2020/12/31 00:50:00.000,n,153,6.12,5.76,6.48,21.6,84.1,1014.12,0.02,0,0,0,0.026131
2020/12/31 00:51:00.011,n,155,5.76,5.04,6.12,21.6,84,1014.12,0.02,0,0,0,0.022621
2020/12/31 00:52:00.007,n,164,3.6,3.24,3.96,21.6,84.1,1014.12,0.02,0,0,0,0.02697
2020/12/31 00:53:00.005,n,143,3.96,3.24,4.68,21.6,84.2,1014.02,0.02,0,0,0,0.022621
2020/12/31 00:54:00.002,n,148,4.68,4.32,5.76,21.6,84.2,1014.02,0.02,0,0,0,0.028725
2020/12/31 00:55:00.000,n,143,2.88,2.16,3.96,21.6,84.2,1014.02,0.02,0,0,0,0.033035
2020/12/31 00:56:00.000,n,187,3.96,3.24,4.68,21.6,84.3,1014.02,0.02,0,0,0,0.03479
2020/12/31 00:57:00.000,n,174,3.24,2.88,3.6,21.6,84.4,1014.02,0.02,0,0,0,0.028725
2020/12/31 00:58:00.006,n,159,2.16,1.8,2.88,21.6,84.4,1014.02,0.02,0,0,0,0.024376
2020/12/31 00:59:00.003,n,170,1.8,1.44,1.8,21.6,84.4,1014.02,0.02,0,0,0,0.032196
2020/12/31 01:00:00.000,n,210,1.44,0.72,1.8,21.6,84.4,1013.92,0.02,0,0,0,0.033035
2020/12/31 01:01:00.000,n,154,2.88,2.16,3.24,21.6,84.4,1013.92,0.02,0,0,0,0.030441
2020/12/31 01:02:00.011,n,173,3.24,2.52,3.96,21.6,84.5,1013.92,0.02,0,0,0,0.029602
2020/12/31 01:03:00.008,n,201,3.24,2.88,3.96,21.6,84.5,1013.92,0.02,0,0,0,0.029602
2020/12/31 01:04:00.000,n,170,2.16,1.8,2.52,21.6,84.6,1013.92,0.02,0,0,0,0.020866
2020/12/31 01:05:00.004,n,167,4.32,4.32,5.04,21.6,84.5,1013.82,0.02,0,0,0,0.02697
2020/12/31 01:06:00.000,n,175,2.88,1.44,4.32,21.6,84.5,1013.82,0.02,0,0,0,0.028725
2020/12/31 01:07:00.000,n,171,4.32,3.96,4.68,21.6,84.6,1013.82,0.02,0,0,0,0.034828
2020/12/31 01:08:00.000,n,193,3.6,2.88,4.32,21.6,84.6,1013.82,0.02,0,0,0,0.040932
2020/12/31 01:09:00.007,n,161,1.8,1.08,2.52,21.6,84.7,1013.82,0.02,0,0,0,0.039177
2020/12/31 01:10:00.004,n,177,4.32,3.6,4.68,21.6,84.7,1013.82,0.02,0,0,0,0.037422
2020/12/31 01:11:00.002,n,151,2.88,2.52,3.24,21.6,84.7,1013.82,0.02,0,0,0,0.035706
2020/12/31 01:12:00.000,n,187,1.8,1.8,2.52,21.6,84.7,1013.72,0.02,0,0,0,0.037422
2020/12/31 01:13:00.000,n,183,4.32,3.96,4.68,21.6,84.7,1013.72,0.02,0,0,0,0.039177
2020/12/31 01:14:00.000,n,190,6.84,5.04,7.92,21.6,84.6,1013.72,0.02,0,0,0,0.036583
2020/12/31 01:15:00.000,n,237,1.08,0.36,1.44,21.6,84.5,1013.72,0.02,0,0,0,0.036583
2020/12/31 01:16:00.000,n,187,6.84,6.48,7.2,21.6,84.7,1013.62,0.02,0,0,0,0.037422
2020/12/31 01:17:00.005,n,155,2.16,1.44,2.52,21.6,84.6,1013.62,0.02,0,0,0,0.033951
2020/12/31 01:18:00.002,n,185,4.32,3.96,4.32,21.6,84.7,1013.62,0.02,0,0,0,0.036583
2020/12/31 01:19:00.000,n,188,2.16,1.8,2.88,21.6,84.7,1013.62,0.02,0,0,0,0.034828
2020/12/31 01:20:00.013,n,121,1.8,1.44,2.16,21.6,84.6,1013.62,0.02,0,0,0,0.034828
2020/12/31 01:21:00.010,n,224,0.36,0.36,0.72,21.6,84.6,1013.62,0.02,0,0,0,0.033951
2020/12/31 01:22:00.000,n,180,3.6,3.24,3.96,21.6,84.7,1013.62,0.02,0,0,0,0.034828
2020/12/31 01:23:00.000,n,168,4.68,4.32,4.68,21.6,84.6,1013.62,0.02,0,0,0,0.035706
2020/12/31 01:24:00.003,n,175,3.24,2.52,3.96,21.6,84.6,1013.62,0.02,0,0,0,0.037422
2020/12/31 01:25:00.000,n,153,3.24,2.52,4.32,21.6,84.7,1013.52,0.02,0,0,0,0.035706
2020/12/31 01:26:00.000,n,134,3.24,2.88,3.6,21.6,84.7,1013.52,0.02,0,0,0,0.0383
2020/12/31 01:27:00.000,n,157,2.88,2.52,3.24,21.6,84.7,1013.52,0.02,0,0,0,0.035706
2020/12/31 01:28:00.009,n,250,1.44,1.08,1.8,21.6,84.7,1013.52,0.02,0,0,0,0.031357
2020/12/31 01:29:00.006,n,145,1.8,1.44,2.16,21.6,84.7,1013.52,0.02,0,0,0,0.031357
2020/12/31 01:30:00.004,n,148,0.72,0.36,1.08,21.6,84.9,1013.52,0.02,0,0,0,0.032196
2020/12/31 01:31:00.001,n,186,4.32,3.6,4.68,21.6,84.8,1013.52,0.02,0,0,0,0.035706
2020/12/31 01:32:00.000,n,149,4.68,4.68,4.68,21.6,84.7,1013.52,0.02,0,0,0,0.036583
2020/12/31 01:33:00.000,n,195,3.6,3.24,4.32,21.6,84.8,1013.52,0.02,0,0,0,0.033951
2020/12/31 01:34:00.000,n,221,1.08,0.72,1.8,21.6,84.7,1013.52,0.02,0,0,0,0.039177
2020/12/31 01:35:00.007,n,197,3.96,3.24,4.68,21.6,84.7,1013.52,0.02,0,0,0,0.036583
2020/12/31 01:36:00.005,n,181,5.4,5.04,6.12,21.6,84.7,1013.42,0.02,0,0,0,0.035706
2020/12/31 01:37:00.002,n,185,7.56,6.84,7.56,21.5,84.4,1013.42,0.02,0,0,0,0.031357
2020/12/31 01:38:00.000,n,250,3.24,2.52,3.96,21.5,84.6,1013.42,0.02,0,0,0,0.036583
2020/12/31 01:39:00.013,n,167,3.24,2.16,3.96,21.5,84.4,1013.42,0.02,0,0,0,0.033951
2020/12/31 01:40:00.000,n,161,6.12,5.76,6.48,21.5,84.3,1013.42,0.02,0,0,0,0.036583
2020/12/31 01:41:00.000,n,152,1.8,0.72,2.16,21.5,84.4,1013.42,0.02,0,0,0,0.030479
2020/12/31 01:42:00.004,n,198,1.08,0.72,1.8,21.5,84.4,1013.42,0.02,0,0,0,0.032196
2020/12/31 01:43:00.001,n,187,1.08,0.72,1.44,21.5,84.4,1013.42,0.02,0,0,0,0.033951
2020/12/31 01:44:00.000,n,194,3.96,3.6,4.68,21.5,84.5,1013.42,0.02,0,0,0,0.030479
2020/12/31 01:45:00.000,n,174,4.68,3.96,5.4,21.5,84.3,1013.42,0.02,0,0,0,0.034828
2020/12/31 01:46:00.009,n,173,2.16,1.8,2.52,21.5,84.4,1013.42,0.02,0,0,0,0.034828
2020/12/31 01:47:00.006,n,162,6.48,5.76,7.56,21.5,84.3,1013.32,0.02,0,0,0,0.034828
2020/12/31 01:48:00.003,n,209,4.68,4.32,5.4,21.4,84.3,1013.32,0.02,0,0,0,0.036583
2020/12/31 01:49:00.000,n,160,5.4,4.32,6.12,21.4,84.2,1013.32,0.02,0,0,0,0.034828
2020/12/31 01:50:00.000,n,151,2.16,0.72,4.32,21.4,84.3,1013.32,0.02,0,0,0,0.032196
2020/12/31 01:51:00.000,n,207,6.48,2.88,7.92,21.4,84.1,1013.22,0.02,0,0,0,0.033951
2020/12/31 01:52:00.000,n,200,6.84,6.48,7.56,21.4,84.2,1013.22,0.02,0,0,0,0.032196
2020/12/31 01:53:00.008,n,168,3.24,1.44,4.68,21.4,84.2,1013.22,0.02,0,0,0,0.033073
2020/12/31 01:54:00.004,n,204,4.32,0.72,5.4,21.4,84.1,1013.22,0.02,0,0,0,0.034828
2020/12/31 01:55:00.001,n,183,9.36,8.64,10.440002,21.4,83.9,1013.12,0.02,0,0,0,0.034828
2020/12/31 01:56:00.000,n,199,5.4,5.04,6.48,21.4,83.8,1013.12,0.02,0,0,0,0.031357
2020/12/31 01:57:00.013,n,203,5.04,4.68,5.76,21.3,83.8,1013.12,0.02,0,0,0,0.035706
2020/12/31 01:58:00.000,n,204,4.68,3.96,5.04,21.3,83.8,1013.12,0.02,0,0,0,0.029602
2020/12/31 01:59:00.000,n,188,5.4,4.68,5.76,21.3,83.8,1013.12,0.02,0,0,0,0.032196
2020/12/31 02:00:00.004,n,177,5.76,5.04,6.48,21.3,83.7,1013.12,0.02,0,0,0,0.031357
2020/12/31 02:01:00.001,n,168,6.84,5.4,7.56,21.3,83.8,1013.02,0.02,0,0,0,0.030479
2020/12/31 02:02:00.000,n,186,5.4,4.68,6.12,21.3,83.7,1013.02,0.02,0,0,0,0.028725
2020/12/31 02:03:00.000,n,164,4.68,3.96,5.04,21.3,83.8,1013.02,0.02,0,0,0,0.025253
2020/12/31 02:04:00.009,n,201,4.32,3.96,5.4,21.3,83.6,1013.02,0.02,0,0,0,0.029602
2020/12/31 02:05:00.006,n,195,6.12,5.04,7.56,21.3,83.6,1012.92,0.02,0,0,0,0.030479
2020/12/31 02:06:00.003,n,149,7.2,5.76,8.28,21.3,83.7,1012.92,0.02,0,0,0,0.027847
2020/12/31 02:07:00.001,n,237,5.4,4.32,6.48,21.3,83.4,1012.92,0.02,0,0,0,0.030479
2020/12/31 02:08:00.000,n,180,2.88,2.16,3.96,21.3,83.5,1012.92,0.02,0,0,0,0.033073
2020/12/31 02:09:00.000,n,183,3.24,2.52,3.6,21.3,83.5,1012.92,0.02,0,0,0,0.031357
2020/12/31 02:10:00.000,n,174,2.88,2.52,3.24,21.3,83.6,1012.92,0.02,0,0,0,0.032196
2020/12/31 02:11:00.008,n,183,2.52,2.52,3.24,21.3,83.7,1012.92,0.02,0,0,0,0.025253
2020/12/31 02:12:00.005,n,194,3.6,3.24,3.96,21.3,83.7,1012.92,0.02,0,0,0,0.027847
2020/12/31 02:13:00.002,n,194,2.52,1.8,3.6,21.3,83.8,1012.92,0.02,0,0,0,0.027847
2020/12/31 02:14:00.000,n,176,1.08,0.72,1.8,21.4,83.8,1012.92,0.02,0,0,0,0.029602
2020/12/31 02:15:00.013,n,247,1.44,1.08,2.16,21.4,83.8,1012.92,0.02,0,0,0,0.027008
2020/12/31 02:16:00.000,n,175,0.72,0.36,2.16,21.4,83.8,1012.92,0.02,0,0,0,0.027847
2020/12/31 02:17:00.000,n,185,3.6,3.24,3.96,21.4,84,1012.92,0.02,0,0,0,0.031357
2020/12/31 02:18:00.003,n,163,6.84,6.48,7.56,21.4,83.7,1012.92,0.02,0,0,0,0.032234
2020/12/31 02:19:00.000,n,199,6.84,6.48,7.2,21.4,83.6,1012.92,0.02,0,0,0,0.035667
2020/12/31 02:20:00.000,n,194,6.48,5.76,6.48,21.4,83.7,1012.92,0.02,0,0,0,0.0383
2020/12/31 02:21:00.009,n,193,2.16,1.8,2.52,21.4,83.8,1012.92,0.02,0,0,0,0.036545
2020/12/31 02:22:00.006,n,274,1.08,0.72,1.44,21.4,83.8,1012.92,0.02,0,0,0,0.03746
2020/12/31 02:23:00.004,n,166,2.16,1.08,2.52,21.4,84,1012.92,0.02,0,0,0,0.031319
2020/12/31 02:24:00.001,n,170,2.88,0.72,4.32,21.4,83.6,1012.92,0.02,0,0,0,0.033951
2020/12/31 02:25:00.000,n,158,2.88,1.08,4.32,21.4,83.6,1012.92,0.02,0,0,0,0.035667
2020/12/31 02:26:00.000,n,194,3.24,2.88,3.6,21.4,84,1012.92,0.02,0,0,0,0.0383
2020/12/31 02:27:00.000,n,227,3.6,3.6,6.48,21.4,84,1012.92,0.02,0,0,0,0.0383
2020/12/31 02:28:00.007,n,211,2.88,2.52,2.88,21.4,84,1012.92,0.02,0,0,0,0.033951
2020/12/31 02:29:00.004,n,210,8.28,7.92,8.64,21.4,83.2,1012.92,0.02,0,0,0,0.035667
2020/12/31 02:30:00.001,n,143,2.16,1.8,2.52,21.3,83.3,1012.92,0.02,0,0,0,0.035667
2020/12/31 02:31:00.000,n,190,5.04,4.68,5.4,21.3,83.5,1012.92,0.02,0,0,0,0.040054
2020/12/31 02:32:00.012,n,174,4.32,3.24,5.76,21.3,83.7,1012.92,0.02,0,0,0,0.039177
2020/12/31 02:33:00.008,n,188,5.4,4.68,6.48,21.3,83.6,1012.82,0.02,0,0,0,0.041809
2020/12/31 02:34:00.000,n,194,5.76,5.04,6.12,21.3,83.5,1012.82,0.02,0,0,0,0.035667
2020/12/31 02:35:00.003,n,174,7.2,6.48,7.92,21.3,83.3,1012.82,0.02,0,0,0,0.03746
2020/12/31 02:36:00.000,n,166,5.76,5.4,6.12,21.3,83.4,1012.82,0.02,0,0,0,0.043526
2020/12/31 02:37:00.000,n,163,6.48,5.04,8.28,21.3,83.4,1012.82,0.02,0,0,0,0.03746
2020/12/31 02:38:00.000,n,178,7.92,6.84,9,21.3,83.4,1012.82,0.02,0,0,0,0.034828
2020/12/31 02:39:00.008,n,176,3.24,2.52,3.96,21.3,83.6,1012.82,0.02,0,0,0,0.040054
2020/12/31 02:40:00.004,n,214,2.16,0,4.68,21.3,83.7,1012.82,0.02,0,0,0,0.0383
2020/12/31 02:41:00.001,n,159,6.84,5.76,7.2,21.3,83.4,1012.72,0.02,0,0,0,0.0383
2020/12/31 02:42:00.015,n,194,2.52,1.44,2.88,21.3,83.5,1012.72,0.02,0,0,0,0.042686
2020/12/31 02:43:00.000,n,151,3.96,2.88,4.32,21.3,83.7,1012.72,0.02,0,0,0,0.0383
2020/12/31 02:44:00.000,n,193,6.48,6.12,7.56,21.3,83.7,1012.72,0.02,0,0,0,0.042686
2020/12/31 02:45:00.000,n,193,6.48,5.76,7.56,21.3,83.5,1012.72,0.02,0,0,0,0.039177
2020/12/31 02:46:00.005,n,197,3.6,3.24,3.6,21.2,83.5,1012.72,0.02,0,0,0,0.036545
2020/12/31 02:47:00.002,n,195,3.6,2.52,4.32,21.2,83.4,1012.72,0.02,0,0,0,0.036545
2020/12/31 02:48:00.000,n,175,2.16,2.16,2.52,21.2,83.6,1012.72,0.02,0,0,0,0.041809
2020/12/31 02:49:00.013,n,205,5.04,4.68,5.4,21.2,83.7,1012.72,0.02,0,0,0,0.040894
2020/12/31 02:50:00.010,n,117,1.8,0.36,2.52,21.2,83.6,1012.72,0.02,0,0,0,0.0383
2020/12/31 02:51:00.007,n,240,3.24,2.88,3.6,21.2,83.8,1012.62,0.02,0,0,0,0.042686
2020/12/31 02:52:00.000,n,175,2.88,2.52,3.24,21.2,83.6,1012.72,0.02,0,0,0,0.042686
2020/12/31 02:53:00.002,n,226,1.44,1.08,1.8,21.2,83.5,1012.72,0.02,0,0,0,0.040054
2020/12/31 02:54:00.000,n,221,2.16,2.16,2.88,21.2,83.6,1012.72,0.02,0,0,0,0.03746
2020/12/31 02:55:00.000,n,207,3.96,3.6,4.32,21.2,83.5,1012.72,0.02,0,0,0,0.042686
2020/12/31 02:56:00.000,n,355,2.88,2.16,3.24,21.2,83.8,1012.72,0.02,0,0,0,0.039177
2020/12/31 02:57:00.007,n,252,3.6,2.88,3.96,21.2,83.7,1012.72,0.02,0,0,0,0.0383
2020/12/31 02:58:00.004,n,344,1.8,1.44,2.16,21.2,83.6,1012.72,0.02,0,0,0,0.039177
2020/12/31 02:59:00.001,n,200,1.08,0.72,1.8,21.2,83.6,1012.72,0.02,0,0,0,0.039177
2020/12/31 03:00:00.015,n,177,3.6,2.16,4.68,21.3,83.6,1012.72,0.02,0,0,0,0.04528
2020/12/31 03:01:00.000,n,144,6.48,6.12,6.84,21.2,83.4,1012.82,0.02,0,0,0,0.047035
2020/12/31 03:02:00.000,n,144,8.64,7.92,10.08,21.2,83.4,1012.82,0.04,0.6,0,0,0.044403
2020/12/31 03:03:00.000,n,148,5.04,4.68,5.4,21.2,83.4,1012.92,0.16,5.5,0,0,0.042686
2020/12/31 03:04:00.007,n,135,6.12,5.76,6.12,21.2,83.5,1012.92,0.42,15.2,0,0,0.044403
2020/12/31 03:05:00.000,n,120,2.88,2.16,3.24,21.2,83.9,1012.92,0.56,10.2,0,0,0.043526
2020/12/31 03:06:00.003,n,194,2.52,1.8,3.24,21.2,84.1,1012.82,0.58,1.7,0,0,0.043526
2020/12/31 03:07:00.001,n,149,3.6,2.52,3.96,21.3,84.1,1012.82,0.6,1.3,0,0,0.040054
2020/12/31 03:08:00.000,n,146,2.16,1.8,2.88,21.2,83.8,1012.82,0.6,0,0,0,0.042686
2020/12/31 03:09:00.012,n,133,5.4,4.32,5.76,21.2,84.2,1012.82,0.6,0,0,0,0.040894
2020/12/31 03:10:00.000,n,152,5.4,4.68,5.76,21.2,84.3,1012.82,0.6,0,0,0,0.03746
2020/12/31 03:11:00.000,n,155,5.76,5.4,5.76,21.1,84,1012.82,0.6,0,0,0,0.04528
2020/12/31 03:12:00.005,n,138,5.04,5.04,5.76,21,83.8,1012.82,0.6,0,0,0,0.040894
2020/12/31 03:13:00.003,n,141,6.84,6.12,7.92,21,84.1,1012.82,0.6,0,0,0,0.041809
2020/12/31 03:14:00.000,n,121,4.68,3.24,5.4,20.9,84.3,1012.82,0.6,0,0,0,0.040894
2020/12/31 03:15:00.000,n,148,1.44,1.08,1.8,20.9,84.6,1012.92,0.6,0,0,0,0.040894
2020/12/31 03:16:00.012,n,132,3.6,2.88,4.68,21,84.8,1012.92,0.6,0,0,0,0.040054
2020/12/31 03:17:00.008,n,350,0.72,0.72,1.08,21,84.8,1012.92,0.6,0,0,0,0.040894
2020/12/31 03:18:00.005,n,80,1.8,1.8,2.16,21,85.1,1012.92,0.6,0,0,0,0.035667
2020/12/31 03:19:00.000,n,116,1.44,1.08,2.16,21,85.2,1012.92,0.6,0,0,0,0.040054
2020/12/31 03:20:00.000,n,159,3.96,3.24,4.32,21,84.8,1012.92,0.6,0,0,0,0.0383
2020/12/31 03:21:00.000,n,167,3.96,3.6,4.32,21,84.7,1012.92,0.6,0,0,0,0.039177
2020/12/31 03:22:00.000,n,157,3.6,3.24,4.68,21,84.9,1012.92,0.6,0,0,0,0.036545
2020/12/31 03:23:00.006,n,151,1.8,1.8,2.16,21,84.8,1012.92,0.6,0,0,0,0.035667
2020/12/31 03:24:00.003,n,177,2.52,2.16,3.24,20.9,85,1012.92,0.6,0,0,0,0.036545
2020/12/31 03:25:00.001,n,173,4.32,3.6,4.32,20.9,84.9,1012.92,0.6,0,0,0,0.036545
2020/12/31 03:26:00.000,n,171,3.24,3.24,3.6,20.9,85.2,1012.92,0.6,0,0,0,0.036545
2020/12/31 03:27:00.013,n,192,2.88,2.52,2.88,21,85.2,1012.92,0.6,0,0,0,0.0383
2020/12/31 03:28:00.000,n,191,3.6,3.24,4.32,21,85.3,1012.92,0.6,0,0,0,0.039177
2020/12/31 03:29:00.000,n,171,4.32,3.96,5.04,21,85.3,1013.02,0.6,0,0,0,0.040894
2020/12/31 03:30:00.004,n,197,3.24,2.88,3.6,21,85.4,1013.02,0.6,0,0,0,0.033951
2020/12/31 03:31:00.003,n,172,3.24,2.52,3.96,21,85.4,1013.02,0.6,0,0,0,0.039177
2020/12/31 03:32:00.000,n,197,5.76,5.04,6.48,21,85.4,1013.02,0.6,0,0,0,0.0383
2020/12/31 03:33:00.000,n,181,3.96,3.24,4.68,21,85.3,1013.02,0.6,0,0,0,0.0383
2020/12/31 03:34:00.012,n,207,2.52,0.72,3.6,21,85.4,1012.92,0.6,0,0,0,0.0383
2020/12/31 03:35:00.009,n,189,6.48,6.12,6.84,21,85.3,1012.92,0.6,0,0,0,0.039177
2020/12/31 03:36:00.006,n,174,5.76,5.04,6.48,21,85.3,1012.92,0.6,0,0,0,0.03746
2020/12/31 03:37:00.000,n,199,2.16,1.8,2.16,21,85.5,1012.92,0.6,0,0,0,0.033951
2020/12/31 03:38:00.000,n,218,5.04,4.68,5.4,21,85.5,1012.92,0.6,0,0,0,0.036545
2020/12/31 03:39:00.000,n,192,3.6,1.8,5.4,21,85.4,1012.92,0.6,0,0,0,0.0383
2020/12/31 03:40:00.000,n,269,1.8,0.72,2.52,21,85.6,1012.92,0.6,0,0,0,0.035667
2020/12/31 03:41:00.008,n,167,1.8,1.08,2.16,21,85.6,1012.92,0.6,0,0,0,0.030479
2020/12/31 03:42:00.004,n,127,1.8,1.08,2.16,21,85.7,1012.92,0.6,0,0,0,0.03746
2020/12/31 03:43:00.001,n,212,1.44,0.72,1.8,21,85.7,1012.92,0.6,0,0,0,0.034828
2020/12/31 03:44:00.015,n,207,1.8,1.44,2.16,21,85.8,1012.92,0.6,0,0,0,0.035667
2020/12/31 03:45:00.011,n,145,1.8,0.36,2.88,21,85.8,1012.92,0.6,0,0,0,0.035667
2020/12/31 03:46:00.000,n,185,4.32,3.96,5.04,21,85.7,1012.92,0.6,0,0,0,0.033073
2020/12/31 03:47:00.000,n,172,4.32,3.6,5.4,21,85.8,1012.92,0.6,0,0,0,0.036545
2020/12/31 03:48:00.003,n,207,5.04,4.68,6.12,21,85.8,1012.92,0.6,0,0,0,0.035667
2020/12/31 03:49:00.000,n,204,5.76,5.04,7.2,21,85.6,1012.92,0.6,0,0,0,0.03746
2020/12/31 03:50:00.000,n,202,3.96,3.24,4.68,21,85.7,1012.92,0.6,0,0,0,0.033073
2020/12/31 03:51:00.011,n,187,3.24,2.88,3.96,21,85.6,1012.92,0.6,0,0,0,0.036545
2020/12/31 03:52:00.007,n,189,2.16,1.8,2.52,21,85.6,1012.92,0.6,0,0,0,0.034828
2020/12/31 03:53:00.005,n,196,5.04,5.04,5.76,21,85.7,1012.92,0.6,0,0,0,0.035667
2020/12/31 03:54:00.002,n,193,1.8,1.8,2.16,21,85.6,1012.92,0.6,0,0,0,0.034828
2020/12/31 03:55:00.000,n,197,2.52,2.16,3.24,21,85.7,1012.92,0.6,0,0,0,0.033951
2020/12/31 03:56:00.000,n,216,2.88,2.16,3.6,21,85.7,1012.92,0.6,0,0,0,0.034828
2020/12/31 03:57:00.000,n,186,5.04,4.32,5.76,21,85.8,1012.92,0.6,0,0,0,0.034828
2020/12/31 03:58:00.000,n,225,1.44,1.08,2.16,21,85.7,1012.92,0.6,0,0,0,0.032234
2020/12/31 03:59:00.005,n,198,1.8,1.8,2.16,21,85.8,1012.92,0.6,0,0,0,0.033073
2020/12/31 04:00:00.002,n,134,2.88,1.44,4.32,21,85.8,1012.92,0.6,0,0,0,0.029602
2020/12/31 04:01:00.000,n,166,3.96,3.6,4.32,21,85.8,1012.92,0.6,0,0,0,0.033951
2020/12/31 04:02:00.012,n,174,2.16,1.8,2.52,21,85.9,1013.02,0.6,0,0,0,0.033951
2020/12/31 04:03:00.011,n,150,2.52,1.44,2.88,21.1,85.9,1012.92,0.6,0,0,0,0.031319
2020/12/31 04:04:00.000,n,196,3.96,3.6,4.32,21.1,85.9,1013.02,0.6,0,0,0,0.030479
2020/12/31 04:05:00.000,n,175,4.32,3.96,4.68,21.1,85.7,1013.02,0.6,0,0,0,0.028725
2020/12/31 04:06:00.002,n,165,5.4,4.32,6.48,21.1,85.8,1013.02,0.6,0,0,0,0.034828
2020/12/31 04:07:00.000,n,159,6.12,5.76,6.84,21,85.8,1013.02,0.6,0,0,0,0.033951
2020/12/31 04:08:00.000,n,176,3.24,2.88,3.6,21,85.9,1013.02,0.6,0,0,0,0.035667
2020/12/31 04:09:00.011,n,172,3.24,2.88,3.6,21,85.9,1013.02,0.6,0,0,0,0.034828
2020/12/31 04:10:00.007,n,168,6.84,6.48,7.2,21,85.9,1013.02,0.6,0,0,0,0.033073
2020/12/31 04:11:00.005,n,189,3.6,3.24,3.96,21,85.9,1013.02,0.6,0,0,0,0.030479
2020/12/31 04:12:00.002,n,203,3.96,3.96,4.68,21,85.9,1013.02,0.6,0,0,0,0.036545
2020/12/31 04:13:00.000,n,187,5.76,5.4,6.48,21,86,1013.02,0.6,0,0,0,0.031319
2020/12/31 04:14:00.000,n,195,8.64,7.2,10.08,21,85.7,1013.02,0.6,0,0,0,0.035667
2020/12/31 04:15:00.000,n,185,6.12,5.76,7.2,21,85.7,1013.02,0.6,0,0,0,0.034828
2020/12/31 04:16:00.007,n,187,6.84,6.48,7.2,21,85.6,1013.02,0.6,0,0,0,0.035667
2020/12/31 04:17:00.004,n,184,7.92,7.2,8.64,20.9,85.6,1013.02,0.6,0,0,0,0.033073
2020/12/31 04:18:00.001,n,205,3.24,2.52,3.6,20.9,85.6,1013.02,0.6,0,0,0,0.033073
2020/12/31 04:19:00.000,n,171,6.84,6.12,7.2,20.9,85.6,1013.02,0.6,0,0,0,0.035667
2020/12/31 04:20:00.014,n,188,3.24,2.52,4.32,20.9,85.6,1013.02,0.6,0,0,0,0.030479
2020/12/31 04:21:00.011,n,183,4.68,3.96,5.4,20.9,85.7,1013.02,0.6,0,0,0,0.028725
2020/12/31 04:22:00.000,n,225,5.04,4.32,6.48,20.9,85.7,1013.12,0.6,0,0,0,0.035667
2020/12/31 04:23:00.000,n,198,3.6,3.24,5.04,20.9,85.7,1013.12,0.6,0,0,0,0.034828
2020/12/31 04:24:00.003,n,232,2.52,2.16,2.88,21,85.7,1013.12,0.6,0,0,0,0.033951
2020/12/31 04:25:00.000,n,163,3.24,2.16,3.96,21,85.8,1013.12,0.6,0,0,0,0.03746
2020/12/31 04:26:00.000,n,199,5.4,4.68,5.76,21,85.8,1013.12,0.6,0,0,0,0.041809
2020/12/31 04:27:00.010,n,203,5.04,3.96,6.12,21,85.7,1013.12,0.6,0,0,0,0.043526
2020/12/31 04:28:00.007,n,238,3.6,3.6,3.96,21,85.7,1013.12,0.6,0,0,0,0.043526
2020/12/31 04:29:00.004,n,222,3.24,2.88,3.24,21,85.8,1013.22,0.6,0,0,0,0.051346
2020/12/31 04:30:00.001,n,230,3.24,3.24,3.6,21,85.8,1013.12,0.6,0,0,0,0.052261
2020/12/31 04:31:00.000,n,304,1.8,1.44,2.16,21.1,86.1,1013.12,0.6,0,0,0,0.057449
2020/12/31 04:32:00.000,n,249,2.88,2.88,3.6,21.1,86,1013.12,0.6,0,0,0,0.065269
2020/12/31 04:33:00.000,n,254,2.52,0.72,3.24,21.1,85.9,1013.12,0.6,0,0,0,0.074844
2020/12/31 04:34:00.006,n,265,3.96,2.88,5.04,21.1,85.8,1013.12,0.6,0,0,0,0.088806
2020/12/31 04:35:00.004,n,266,5.4,5.04,6.12,21.1,85.7,1013.12,0.6,0,0,0,0.107918
2020/12/31 04:36:00.001,n,257,3.96,3.6,4.32,21.1,85.8,1013.22,0.6,0,0,0,0.129662
2020/12/31 04:37:00.000,n,217,2.52,2.16,2.52,21.1,85.8,1013.22,0.6,0,0,0,0.159264
2020/12/31 04:38:00.012,n,219,2.52,2.16,2.52,21.1,85.8,1013.22,0.6,0,0,0,0.200996
2020/12/31 04:39:00.008,n,346,1.08,0.72,1.44,21.1,85.8,1013.22,0.6,0,0,0,0.264473
2020/12/31 04:40:00.000,n,208,2.52,2.16,2.88,21.1,85.8,1013.22,0.6,0,0,0,0.332222
2020/12/31 04:41:00.003,n,212,3.24,2.52,3.96,21.1,85.8,1013.22,0.6,0,0,0,0.42778
2020/12/31 04:42:00.000,n,219,1.44,0.72,2.88,21.1,85.9,1013.22,0.6,0,0,0,0.550194
2020/12/31 04:43:00.000,n,180,3.24,2.88,3.6,21,85.8,1013.32,0.6,0,0,0,0.660973
2020/12/31 04:44:00.000,n,247,3.24,2.88,3.6,21,85.9,1013.32,0.6,0,0,0,0.791512
2020/12/31 04:45:00.007,n,290,4.68,4.32,5.04,21,86.2,1013.32,0.6,0,0,0,0.937653
2020/12/31 04:46:00.004,n,149,0.72,0.36,1.08,21,86,1013.32,0.6,0,0,0,1.088867
2020/12/31 04:47:00.001,n,251,2.88,2.52,3.6,21,85.8,1013.32,0.6,0,0,0,1.249466
2020/12/31 04:48:00.015,n,276,5.76,5.04,6.12,21,85.9,1013.32,0.6,0,0,0,1.429901